Regional Weather Roundup
Issued by NWS

Home | Current Version | Previous Version | Text Only | Print | Product List | Glossary On
Versions: 1 2 3 4 5 6 7 8 9 10 11 12 13 14 15 16 17 18 19 20 21 22 23 24 25 26 27 28 29 30 31 32 33 34 35 36 37 38 39 40 41 42 43 44 45 46 47 48 49 50
000
ASCA44 KEWX 301620
RWRMX

LATIN AMERICA AND CARIBBEAN REGIONAL WEATHER ROUNDUP
NATIONAL WEATHER SERVICE AUSTIN/SAN ANTONIO TX
1100 AM CDT SAT MAY 30 2015

NOTE: "FAIR" INDICATED FEW OR NO CLOUDS BELOW 12,000 FEET WITH NO
SIGNIFICANT WEATHER AND/OR OBSTRUCTIONS TO VISIBILITY.

BAJA CALIFORNIA

CITY           SKY/WX    TMP DP  RH WIND       PRES   REMARKS
LORETO         SUNNY     82  73  74 NE6       29.88R
LA PAZ         SUNNY     88  50  27 S3        29.91
MEXICALI       MOSUNNY   79  52  38 E12       29.89
S.J. DEL CABO  SUNNY     93  55  27 W12       29.88S HX  91
TIJUANA        CLOUDY    61  55  82 CALM      29.99R FOG

NORTHWESTERN MEXICO

CITY           SKY/WX    TMP DP  RH WIND       PRES   REMARKS
CULIACAN       SUNNY     88  70  55 CALM      29.89F HX  92
DURANGO        SUNNY     72  52  49 CALM      30.25
GUAYMAS        SUNNY     93  61  33 CALM      29.84  HX  93
HERMOSILLO     SUNNY     88  46  23 CALM      29.94
CD. JUAREZ     MOSUNNY   75  54  46 E23       30.13
LOS MOCHIS     SUNNY     84  66  54 CALM      29.90R
OBREGON        SUNNY     88  55  33 SW6       29.87

NORTHEASTERN MEXICO

CITY           SKY/WX    TMP DP  RH WIND       PRES   REMARKS
CHIHUAHUA      MOSUNNY   84  45  24 S9        30.14
MATAMOROS      PTSUNNY   82  75  78 SE12      30.01
MONCLOVA       CLOUDY    81  70  69 NE12      30.04R
MONTERREY      PTSUNNY   81  68  65 S5        30.00R
NUEVO LAREDO   CLOUDY    82  70  65 CALM      30.03
PIEDRAS NEGRAS FOG       75  73  94 E6        30.06R VSB 3/4
REYNOSA        MOSUNNY   81  70  69 E12       29.99
SALTILLO       PTSUNNY   75  63  64 CALM      30.19S
TORREON        MOSUNNY   84  55  37 CALM      30.10S
CD. VICTORIA   CLOUDY    81  70  69 SE5       29.99

WESTERN MEXICO

CITY           SKY/WX    TMP DP  RH WIND       PRES   REMARKS
AGUASCALIENTES CLOUDY    61  52  72 N10       30.28
COLIMA         PTSUNNY   75  70  83 CALM      30.01R
DEL BAJIO      CLOUDY    64  59  82 SE5       30.30R
GUADALAJARA    PTSUNNY   68  55  64 CALM      30.21
MANZANILLO     PTSUNNY   82  75  78 SE9       29.85
MAZATLAN       SUNNY     84  63  48 W8        29.84F
P. VALLARTA    CLOUDY    82  63  51 CALM      29.88R
URUAPAN        PTSUNNY   70  63  78 CALM      30.18S
ZACATECAS      CLOUDY    64  46  52 E6        30.29S

CENTRAL MEXICO

CITY           SKY/WX    TMP DP  RH WIND       PRES   REMARKS
CUERNAVACA     CLOUDY    70  61  73 SE6       30.16R
MEXICO CITY    CLOUDY    63  52  67 E3        30.32S
MORELIA        CLOUDY    64  57  77 CALM      30.25
POZA RICA      CLOUDY    81  73  78 CALM      29.99F
PUEBLA         CLOUDY    64  52  63 S6        30.33S
QUERETARO      CLOUDY    64  54  68 E12       30.31S
S. LUIS POTOSI CLOUDY    64  54  68 NE6       30.26R
TAMPICO        PTSUNNY   84  72  65 E9        29.98R
TOLUCA         CLOUDY    63  46  55 CALM      30.37F FOG

SOUTHERN MEXICO

CITY           SKY/WX    TMP DP  RH WIND       PRES   REMARKS
ACAPULCO       PTSUNNY   84  75  74 SE14      29.93R HX  92
B. DE HUATULCO MOSUNNY   77  68  73 W9        29.95
OAXACA         PTSUNNY   70  55  60 E6        30.24S
P. ESCONDIDO   CLOUDY    75  73  94 CALM      30.02R
VERACRUZ       MOSUNNY   84  72  65 SE3       29.96R
ZIHUATANEJO    PTSUNNY   86  73  66 CALM      29.88R HX  93

YUCATAN PENINSULA

CITY           SKY/WX    TMP DP  RH WIND       PRES   REMARKS
CAMPECHE       MOSUNNY   88  68  51 E12       29.92R HX  91
CANCUN         MOSUNNY   86  73  66 SE15      29.99R HX  93
CHETUMAL       PTSUNNY   84  75  74 E14       29.96  HX  92
CD. DEL CARMEN PTSUNNY   86  72  62 SE12      29.92  HX  92
COZUMEL        MOSUNNY   82  70  65 CALM      29.99R
MERIDA         MOSUNNY   91  66  43 E15       29.96F HX  94
MINATITLAN     PTSUNNY   84  75  74 N8        29.91  HX  92
TAPACHULA      CLOUDY    86  77  74 CALM      29.93R HX  97
TUX. GUTIERREZ MOSUNNY   81  66  61 CALM      29.98S
VILLAHERMOSA   PTSUNNY   88  75  66 CALM      29.93S HX  97

CENTRAL AMERICA

CITY           SKY/WX    TMP DP  RH WIND       PRES   REMARKS
BELIZE CITY    MOSUNNY   84  77  79 SE5       29.95R HX  94
MANAGUA        PTSUNNY   86  66  51 E12       29.86F

CARIBBEAN

CITY           SKY/WX    TMP DP  RH WIND       PRES   REMARKS
ARUBA          MOSUNNY   86  77  74 E24       29.89S HX  97
CURACAO        MOSUNNY   82  77  83 E14       29.92F HX  91
KINGSTON       PTSUNNY   88  75  66 E12       29.92F HX  97
NASSAU         LGT RAIN  81  70  69 E6          N/A
SAN JUAN       PTSUNNY   86  77  74 NE10      30.01F HX  97
SANTO DOMINGO  PTSUNNY   86  77  74 CALM      30.00S HX  97
ST. CROIX      MOSUNNY   86  75  70 SE10      30.02F HX  95
ST. KITTS      PTSUNNY   88  73  62 E15       30.00S HX  96
ST. THOMAS     MOSUNNY   84  75  74 SE7       30.01F HX  92

$$



USA.gov is the U.S. government's official web portal to all federal, state and local government web resources and services.